Regional Weather Roundup
Issued by NWS

Home | Current Version | Previous Version | Text Only | Print | Product List | Glossary On
Versions: 1 2 3 4 5 6 7 8 9 10 11 12 13 14 15 16 17 18 19 20 21 22 23 24 25 26 27 28
000
ASUS45 KBOI 261310
RWRID

IDAHO REGIONAL WEATHER ROUNDUP
NATIONAL WEATHER SERVICE BOISE ID
700 AM MDT TUE SEP 26 2017

NOTE: "FAIR" INDICATES FEW OR NO CLOUDS BELOW 12000 FEET
WITH NO SIGNIFICANT WEATHER AND/OR OBSTRUCTIONS TO VISIBILITY

IDZ012-014-261400-
SOUTHWEST IDAHO


CITY           SKY/WX    TMP DP  RH WIND       PRES   REMARKS
BOISE          CLOUDY    51  38  60 SE8       30.13R
CALDWELL       PTCLDY    45  40  82 CALM      30.13R
MOUNTAIN HOME  MOCLDY    39  35  84 E8        30.14R WCI  34
$$

IDZ016-017-261400-
SOUTHCENTRAL IDAHO


CITY           SKY/WX    TMP DP  RH WIND       PRES   REMARKS
BURLEY         MOCLDY    35  31  85 SE3       30.16R
JEROME         MOCLDY    41  36  82 NE6       30.17R
TWIN FALLS     PTCLDY    41  31  67 S13       30.16R
$$

IDZ019>023-261400-
SOUTHEAST IDAHO


CITY           SKY/WX    TMP DP  RH WIND       PRES   REMARKS
IDAHO FALLS    CLOUDY    42  35  76 S3        30.19R
POCATELLO      CLOUDY    37  35  92 N6        30.19R WCI  32
REXBURG        CLOUDY    41  37  86 CALM      30.19R
$$

IDZ006-010-011-018-031-032-261400-
CENTRAL IDAHO MOUNTAINS


CITY           SKY/WX    TMP DP  RH WIND       PRES   REMARKS
MCCALL         CLOUDY    41  37  86 CALM      30.17R
HAILEY         CLEAR     37  32  81 NW8       30.20S WCI  31
STANLEY          N/A     32  29  88 CALM      30.24S
SALMON         CLOUDY    44  43  96 CALM      30.21R
CHALLIS        CLOUDY    41  36  82 CALM      30.21R
$$

IDZ002-004-006-007-026-261400-
NORTHERN IDAHO


CITY           SKY/WX    TMP DP  RH WIND       PRES   REMARKS
LEWISTON       MOCLDY    53  48  83 CALM      30.15R
LOWELL           N/A     49  46  90 CALM      30.20R
COEUR D`ALENE  CLEAR     49  46  90 SE3       30.16R
MULLAN PASS    CLOUDY    41  37  86 NW5       30.20R
$$




USA.gov is the U.S. government's official web portal to all federal, state and local government web resources and services.